Wind_Speed
10 10 10 10 9 9 9 8 7 5 4 4 4 4 3 2 2 3 3 4 3 2 3 3 4 4 5 5 6 7 8 10 11 12 13 14 15 16 17 18 18 18 19 18 18 18 18 18 18 17 17 18 19 20 20 20 20 20 20 20 19 18 15 13 13 14 15 16 17 18 19 21 23 25
10 11 11 11 11 10 10 9 8 6 6 5 5 4 4 3 4 4 5 5 5 4 4 4 4 5 6 6 7 8 9 10 12 13 14 14 15 16 16 17 17 17 17 16 16 16 16 16 16 16 16 17 18 19 20 20 19 19 20 20 20 19 17 15 13 12 13 14 15 16 17 18 20 21
11 11 11 11 11 11 10 10 9 8 7 7 7 6 5 6 6 6 6 6 6 5 5 5 5 6 7 8 9 10 11 11 12 13 13 14 14 15 15 15 15 15 15 14 14 14 14 14 15 16 16 16 17 18 19 20 19 19 19 20 20 19 18 17 14 12 12 12 13 14 15 16 17 18
12 11 11 11 11 10 9 9 9 8 8 8 8 7 7 8 8 7 7 7 6 6 7 7 7 7 9 9 9 11 11 12 12 12 12 13 13 14 14 13 13 13 13 13 12 12 12 13 14 15 16 16 16 17 18 19 19 19 19 20 20 19 19 18 16 15 12 11 12 13 14 14 15 16
13 13 13 12 12 11 10 9 9 9 8 8 8 8 8 8 8 7 7 7 7 6 7 9 9 9 10 10 10 11 12 12 12 12 12 12 12 12 12 12 12 13 12 11 11 11 12 13 14 14 15 15 16 16 16 17 18 19 19 20 20 20 19 18 18 17 15 13 11 11 12 13 14 14
13 14 15 15 14 13 11 11 10 10 10 10 9 9 9 8 8 7 8 8 8 8 8 9 11 10 10 11 11 11 12 12 12 12 12 12 11 11 11 12 12 13 12 11 10 11 12 13 14 14 15 15 15 15 15 16 17 18 18 19 19 20 20 19 18 17 17 15 13 12 12 12 13 13
13 14 14 15 15 15 14 13 13 12 12 11 11 11 11 11 10 9 10 10 10 10 9 9 10 11 11 11 10 10 10 11 11 11 11 10 10 10 10 11 12 13 12 10 10 10 12 13 14 15 16 15 15 14 14 14 15 16 17 18 18 19 19 19 19 18 17 17 16 14 12 12 12 12
13 14 14 15 15 15 15 15 15 15 15 15 14 14 14 13 12 12 12 11 11 11 11 9 9 9 10 10 9 9 9 9 9 9 8 8 9 9 10 10 11 12 11 10 9 10 11 13 15 16 16 16 15 14 13 13 14 15 16 17 18 18 19 19 19 18 18 17 17 16 14 13 12 12
13 14 14 14 15 15 15 14 15 15 16 16 16 16 15 15 14 13 13 12 11 11 11 10 8 8 8 9 8 8 9 9 9 8 7 8 8 8 9 10 10 10 10 10 9 10 11 12 14 16 16 16 15 14 13 13 13 14 15 16 17 18 19 19 19 19 18 17 17 16 16 15 14 13
14 14 14 14 15 15 15 14 15 15 15 15 16 16 15 14 14 14 12 12 12 12 12 11 11 10 9 10 10 10 9 9 9 8 8 9 8 7 9 10 10 9 9 10 9 9 10 12 14 15 16 16 16 15 14 14 14 14 14 15 17 18 18 19 19 18 18 17 16 16 16 15 15 14
15 15 14 14 15 15 15 15 15 15 16 16 16 15 14 14 14 13 12 12 13 13 13 13 13 13 12 12 13 12 10 9 8 7 8 9 10 10 10 10 10 10 10 11 10 10 10 13 14 15 16 17 17 17 16 15 14 14 15 15 16 17 18 19 19 18 18 17 17 15 15 15 15 14
16 15 15 15 15 16 16 16 16 17 17 17 17 16 15 14 14 14 13 13 13 14 14 15 15 15 15 15 14 13 12 10 8 8 7 8 9 10 12 13 13 11 11 12 13 12 12 14 16 17 18 19 20 19 18 17 16 15 15 16 17 17 18 18 18 18 18 17 17 16 15 14 14 14
17 17 16 16 16 16 17 17 17 18 18 18 18 18 16 16 15 15 15 14 15 15 15 16 16 16 16 17 16 15 14 11 10 10 9 8 8 9 12 16 17 14 12 12 14 15 15 16 18 20 20 22 22 21 20 19 18 17 17 17 17 18 18 18 18 17 17 17 17 16 15 14 13 13
18 18 18 18 18 18 18 18 18 18 19 19 20 20 18 18 17 17 17 17 16 16 16 17 18 17 17 19 18 16 15 14 12 11 10 8 8 9 11 16 19 18 14 13 16 19 18 18 20 22 22 23 24 23 22 21 20 19 18 18 18 18 18 18 18 17 17 16 16 16 15 14 13 12
20 20 20 20 20 20 20 20 20 20 20 21 21 21 20 19 18 18 18 18 18 18 18 18 19 18 18 19 19 17 16 14 12 11 10 9 9 10 12 15 19 20 18 15 17 21 23 21 22 25 25 25 26 25 24 23 21 20 19 19 18 18 18 18 17 17 16 16 16 16 15 14 13 12
22 22 22 22 22 22 23 22 22 22 22 23 23 22 22 21 20 20 20 20 20 20 19 19 20 20 19 19 20 18 16 14 12 12 11 11 11 12 13 15 18 21 21 19 18 22 26 24 24 26 27 27 27 25 24 23 22 21 20 19 18 18 18 18 17 17 17 16 17 16 16 14 13 12
23 23 23 23 23 24 24 24 24 23 24 24 24 23 23 22 22 22 22 22 22 22 21 20 20 21 21 19 19 20 17 15 15 14 14 14 14 15 16 16 19 23 24 22 19 22 27 26 24 26 27 28 27 25 23 23 22 21 20 19 18 18 18 18 18 17 17 17 17 17 17 16 15 14
24 24 24 24 24 24 24 24 24 24 25 25 24 24 23 23 23 23 23 23 24 24 23 22 21 22 22 20 19 21 20 18 18 17 17 17 18 19 18 19 21 25 26 24 21 22 27 27 24 25 26 28 28 25 23 23 23 21 21 19 18 18 18 18 18 18 17 17 17 17 17 17 17 15
26 26 26 25 25 25 24 25 25 25 25 24 24 25 25 24 24 23 24 24 24 24 24 23 22 22 22 21 21 22 22 21 21 20 19 21 22 21 20 21 23 26 28 27 23 22 26 27 24 24 25 27 29 27 23 23 23 22 21 20 18 18 17 18 17 17 17 16 16 17 17 17 17 16
26 27 27 27 26 26 25 26 25 25 24 23 23 24 25 25 25 24 25 26 26 25 24 23 22 21 22 22 22 23 25 25 24 22 21 23 24 22 21 22 24 26 29 30 26 23 25 26 23 23 25 27 29 29 26 24 24 24 23 21 19 18 17 18 18 17 17 17 17 17 17 17 17 16
25 26 28 28 28 27 27 27 27 26 25 23 23 23 24 25 25 25 27 28 27 26 25 24 23 22 22 22 23 25 26 26 26 24 24 25 26 23 22 22 24 26 30 32 27 24 25 26 24 24 26 28 30 31 30 28 27 26 25 24 22 20 19 19 19 19 18 18 18 18 18 17 16 15
23 25 27 28 28 29 28 28 28 28 26 24 24 24 24 24 25 26 29 30 28 27 27 25 24 23 23 24 25 26 27 28 28 26 26 26 26 25 24 24 24 27 31 33 29 26 26 27 27 26 26 28 31 32 31 31 30 29 28 26 25 23 22 21 21 20 20 19 19 19 19 18 16 15
24 25 26 27 28 29 29 29 29 29 28 26 25 25 24 24 25 27 29 29 29 29 28 27 25 25 25 25 26 27 29 30 30 28 27 27 27 26 26 27 26 27 31 34 31 28 28 28 28 28 26 27 31 33 32 32 32 31 29 28 27 26 24 23 23 22 21 21 20 20 19 19 17 16
26 26 26 27 28 29 30 31 31 30 30 29 28 27 26 25 26 28 29 29 29 29 29 28 28 27 27 27 28 29 30 32 32 31 29 29 29 28 28 29 29 28 31 34 32 28 28 28 29 29 28 27 29 32 33 33 32 31 30 29 28 27 26 25 24 23 23 22 21 20 20 19 18 16
28 28 28 27 29 30 31 32 32 32 32 31 30 29 29 27 27 28 29 30 30 30 29 29 29 29 29 30 30 31 31 33 33 32 31 31 32 31 31 31 30 29 31 35 33 29 27 28 29 30 29 28 29 31 33 34 33 32 30 29 28 27 26 25 24 23 23 22 21 20 19 19 18 16
29 30 29 29 29 31 32 33 33 33 33 32 32 31 31 30 29 29 30 31 31 31 31 31 31 31 32 33 33 34 34 35 36 35 35 35 35 35 34 33 32 31 32 35 35 31 28 27 29 30 29 28 28 30 31 33 33 32 30 29 28 27 25 24 24 22 21 21 21 20 19 18 17 16
30 31 31 30 30 31 32 33 34 34 34 33 33 33 33 32 32 31 31 31 32 32 32 33 33 33 35 35 36 37 38 38 38 38 38 38 38 37 36 35 34 33 33 35 36 34 30 28 29 30 30 28 27 28 30 31 31 31 30 28 28 26 25 23 23 21 20 19 19 18 17 17 17 16
29 31 31 31 31 31 32 33 34 35 35 35 35 34 34 34 34 33 33 34 34 34 33 34 33 34 35 37 37 38 38 38 39 39 39 40 40 38 37 37 36 35 35 37 38 37 34 30 29 30 30 29 27 27 29 30 30 29 28 27 26 26 25 23 21 20 19 17 16 16 16 17 17 18
29 30 30 31 31 32 33 34 35 35 36 36 36 36 36 36 35 36 36 36 36 35 35 35 35 35 36 37 38 38 38 38 38 39 40 40 41 41 40 39 37 36 37 38 39 39 37 34 31 31 30 30 29 28 28 29 29 29 27 26 25 25 25 23 21 20 18 16 15 15 16 17 18 18
30 30 31 31 32 33 33 34 35 36 36 36 36 36 36 36 36 37 38 39 38 38 37 37 36 36 37 38 39 39 39 39 39 40 41 41 41 42 42 41 39 38 39 40 41 41 40 38 35 32 31 31 31 30 29 28 27 28 27 26 25 25 25 25 24 21 19 17 16 17 18 19 19 19
34 33 33 33 33 34 35 35 36 36 37 37 36 36 36 36 36 37 39 39 39 40 39 39 39 39 40 40 40 40 40 40 40 41 42 41 40 42 43 41 38 37 39 41 42 42 42 41 38 35 33 32 32 32 30 28 26 26 27 27 25 24 25 26 26 24 22 19 18 20 22 22 22 23
37 38 38 38 37 37 38 39 39 39 39 38 37 37 37 37 37 38 39 39 39 39 39 39 39 40 41 41 41 41 41 41 41 42 41 41 41 41 42 41 37 35 36 38 40 41 41 42 41 38 35 33 33 33 31 28 27 27 27 27 26 24 25 27 27 27 26 23 22 23 24 24 25 27
40 41 42 42 42 42 41 41 41 41 41 39 38 38 38 38 38 40 40 40 40 39 38 38 38 38 39 39 40 41 40 40 41 41 40 40 41 41 42 41 39 36 34 34 36 38 40 40 40 39 37 35 33 32 31 29 28 28 29 27 26 25 26 28 29 28 28 27 25 26 26 26 27 28
43 43 44 44 45 45 44 43 43 43 42 41 41 41 40 40 40 41 41 42 41 40 39 38 38 38 37 37 38 39 40 40 40 40 39 39 39 39 39 39 38 37 35 33 33 35 37 39 39 38 37 35 33 32 31 29 28 29 30 28 26 27 28 29 29 29 29 29 29 29 29 30 31 31
44 45 45 45 46 46 46 46 46 45 45 44 44 44 44 44 43 43 43 43 43 42 41 39 39 39 39 38 38 39 39 39 39 40 40 39 39 38 37 37 36 36 35 33 32 34 36 37 37 35 35 35 33 31 31 31 30 30 30 30 28 28 28 29 30 30 30 31 31 30 30 31 33 34
45 45 45 46 46 47 47 47 47 47 47 47 47 47 47 46 47 47 46 46 45 44 43 41 41 41 41 41 40 40 40 40 40 40 41 41 41 40 39 38 37 36 35 33 33 34 35 36 36 34 33 33 33 30 30 32 34 32 30 29 28 28 29 31 32 31 31 31 31 30 29 29 31 33
46 46 46 47 47 47 47 48 48 48 48 48 48 48 48 48 48 49 49 49 48 47 46 45 44 43 43 43 42 42 42 42 42 42 42 42 43 42 41 40 39 38 36 34 34 35 35 35 36 36 34 33 32 30 29 32 35 33 29 27 27 29 31 33 33 32 33 33 33 32 31 30 30 32
48 48 48 48 48 48 48 49 49 49 48 48 48 49 49 49 49 49 50 50 50 50 49 48 48 47 47 46 45 44 44 44 44 44 44 44 44 43 43 42 41 40 39 37 36 36 36 36 36 38 37 34 32 31 30 31 32 32 31 29 29 31 34 34 33 33 34 35 36 36 35 33 32 33
51 51 51 51 51 50 50 50 50 50 50 50 50 50 50 50 50 50 50 50 51 51 51 50 50 50 50 50 49 49 47 47 46 46 46 47 46 45 44 43 43 42 41 40 38 38 38 37 37 38 38 36 32 32 31 30 29 30 32 33 33 34 35 35 34 34 35 37 39 38 37 35 34 34
56 55 55 55 54 54 53 53 53 53 53 53 53 52 52 51 52 52 51 51 52 51 52 51 51 51 52 52 52 52 51 50 49 49 49 49 49 48 47 46 44 44 43 42 40 40 39 39 38 39 39 37 35 34 33 30 28 29 33 35 36 36 37 37 37 36 37 39 40 39 37 36 36 36
61 61 60 60 59 58 58 57 57 57 56 56 56 56 55 54 54 54 53 54 53 53 53 52 52 52 52 52 52 53 52 52 52 51 51 51 51 50 50 49 47 46 45 44 42 41 41 41 41 41 40 39 38 37 36 33 31 31 34 36 38 38 39 39 39 39 39 41 41 40 38 38 39 38
66 65 65 64 64 63 63 62 62 61 61 60 60 60 59 58 57 57 56 56 56 55 55 54 54 54 54 54 53 53 53 52 52 52 52 52 52 52 51 51 50 49 49 47 45 43 44 44 44 44 44 43 42 41 39 37 35 34 35 37 39 40 40 41 40 40 41 42 43 42 40 40 40 38
70 69 69 68 68 68 67 67 66 66 66 65 65 64 63 62 61 61 60 59 59 59 58 58 57 57 57 56 56 55 54 53 53 53 53 53 53 53 53 52 52 51 51 50 48 46 46 47 46 46 47 46 45 44 43 40 38 37 37 38 40 42 43 44 44 43 43 43 44 44 43 42 41 39
72 72 72 72 71 71 71 71 71 70 70 70 69 68 68 67 66 65 64 63 63 63 62 62 61 60 60 60 59 59 58 57 56 55 55 54 54 54 54 54 53 53 52 52 51 49 49 49 49 50 50 48 46 47 47 44 41 41 40 41 42 43 45 46 47 47 47 47 47 47 46 44 44 42
73 73 73 73 73 74 74 74 74 74 74 73 73 72 72 71 70 69 68 68 68 68 67 66 65 64 64 64 63 62 62 61 60 59 58 57 56 56 56 55 55 55 54 54 53 52 51 52 52 53 52 51 50 50 50 48 45 44 44 44 45 46 46 48 50 51 51 50 50 50 49 48 47 47
Wind_Direction
198 198 199 201 204 209 218 225 227 228 229 235 247 253 256 262 275 279 283 288 293 296 296 298 301 308 318 322 324 327 332 338 344 349 353 353 355 359 3 6 11 15 17 18 21 22 22 22 22 21 18 13 8 8 10 11 10 8 7 8 9 8 6 5 4 7 11 12 12 16 21 26 30 33
206 204 205 206 207 210 219 227 229 230 231 237 247 254 252 250 254 261 266 272 277 276 274 282 294 305 312 318 324 329 334 340 344 349 354 355 356 360 4 10 15 19 21 22 22 22 21 21 21 22 21 16 9 7 8 9 11 10 8 8 9 9 7 5 1 1 5 8 8 9 14 20 25 29
217 214 212 213 213 214 219 225 228 226 229 237 246 253 253 251 250 252 257 266 278 287 292 297 300 303 311 320 325 328 335 341 345 350 355 357 359 0 4 12 17 20 24 25 24 23 20 18 19 20 21 17 12 7 5 5 7 9 8 7 8 9 8 6 3 357 357 2 3 4 6 11 17 22
226 226 224 222 221 219 219 223 228 229 230 234 238 243 246 248 251 255 261 271 283 290 294 301 305 308 314 322 324 324 333 342 347 353 358 0 1 360 2 10 15 17 22 26 27 26 22 19 18 18 17 16 13 9 4 2 2 5 6 6 6 7 7 6 4 360 354 353 356 358 359 3 8 14
231 232 232 232 231 228 222 220 223 227 232 237 239 242 244 248 255 262 270 279 289 294 294 302 312 317 316 319 325 327 334 343 349 356 0 1 2 360 358 2 7 13 19 25 27 26 22 19 18 15 14 14 13 8 3 0 359 0 4 5 5 5 6 5 4 2 357 352 349 349 351 355 359 3
237 237 237 237 239 239 235 232 229 228 231 236 242 247 252 257 262 268 275 281 290 296 296 299 307 313 314 317 326 331 335 341 348 354 356 356 358 358 355 353 358 6 14 20 22 21 17 13 12 12 11 10 10 7 2 359 357 359 3 6 6 5 5 5 4 2 359 355 351 346 343 345 350 354
246 246 244 244 246 247 247 247 246 245 245 247 250 253 257 262 266 270 274 278 284 290 295 296 299 306 312 317 323 330 334 337 343 349 350 348 349 352 350 348 350 356 6 13 14 12 9 5 6 9 10 8 8 6 1 358 358 0 5 8 9 7 6 6 6 4 360 356 353 350 344 339 340 344
251 252 252 252 252 252 252 253 255 257 259 260 261 262 264 268 272 274 276 280 282 286 293 299 299 302 308 313 322 331 333 334 340 344 341 337 340 341 340 341 344 349 356 2 4 4 1 358 358 2 6 7 6 6 2 360 1 2 6 9 10 9 7 7 7 7 3 358 353 351 349 344 339 336
254 256 257 257 258 258 259 259 260 262 264 266 268 270 272 276 279 281 283 287 288 289 293 300 304 304 306 310 319 328 327 326 331 333 327 324 330 332 329 330 336 344 348 349 352 354 353 351 350 354 0 3 3 4 2 1 1 1 3 5 6 6 6 6 6 7 5 1 356 351 349 348 346 340
260 261 262 261 262 263 265 266 266 266 266 267 269 272 276 280 284 288 292 296 297 299 300 304 307 310 312 311 313 318 318 317 320 321 317 316 319 324 323 323 328 339 342 338 339 344 346 344 343 345 351 354 354 356 358 357 356 355 355 357 359 359 360 0 2 3 3 2 359 354 350 348 347 345
264 266 266 267 267 268 269 270 270 269 269 268 269 272 276 279 283 288 294 297 298 300 302 303 305 309 310 308 307 309 311 311 311 311 309 309 314 320 320 317 321 332 337 333 334 342 344 339 337 338 342 344 344 345 348 348 347 346 345 347 348 350 351 353 355 356 358 358 357 355 352 348 346 345
264 266 267 268 270 272 274 274 273 273 272 272 273 275 277 279 280 283 286 289 290 293 295 297 300 304 305 303 302 304 306 306 305 303 300 297 303 311 312 309 312 322 328 325 326 334 337 333 331 331 333 334 334 334 337 337 336 336 335 336 337 339 341 344 347 349 350 351 351 352 351 349 346 343
260 261 262 264 265 268 270 272 272 272 273 274 275 276 278 279 279 281 283 285 286 288 290 292 295 299 299 298 300 302 302 303 303 304 301 294 294 301 302 301 304 311 317 316 316 321 325 325 322 323 325 325 325 326 328 328 328 327 326 327 328 329 332 335 338 340 343 343 344 345 346 347 345 342
254 254 255 256 257 259 261 263 264 266 268 269 271 273 275 276 278 280 282 283 285 287 288 288 291 293 293 294 297 299 301 305 307 305 301 294 292 295 296 295 298 303 309 310 309 311 316 319 316 317 320 320 319 320 322 322 322 321 320 321 322 322 324 326 328 331 334 335 335 336 338 340 341 340
252 252 252 253 253 254 255 257 258 260 261 262 263 266 268 269 272 274 277 279 282 284 285 286 288 290 291 293 296 297 301 305 305 299 292 286 284 286 287 290 294 299 304 307 307 307 311 315 315 314 317 317 315 317 318 319 319 318 318 318 317 318 318 319 321 324 326 327 327 328 330 332 334 335
255 255 256 256 256 256 257 258 259 260 261 262 262 264 265 267 269 270 273 276 279 281 283 286 288 289 288 289 292 295 298 300 296 290 284 281 278 278 280 283 287 292 297 302 304 303 305 311 314 313 314 313 312 314 316 317 318 318 317 317 316 316 316 316 317 319 320 321 321 322 324 326 327 328
259 259 259 260 261 261 262 263 264 264 266 268 270 271 273 274 274 274 275 276 278 280 282 283 284 284 284 285 288 291 293 292 289 287 285 283 280 278 280 282 283 287 293 299 302 300 301 307 311 311 310 308 307 310 313 314 315 316 316 317 317 316 316 316 317 317 317 318 319 321 322 323 323 322
260 260 260 260 261 263 264 265 266 266 268 270 273 276 278 279 280 281 281 280 280 280 281 282 281 281 283 285 286 287 288 288 285 284 285 284 282 280 282 284 284 287 293 299 301 300 300 304 309 309 306 304 303 307 311 311 311 312 312 314 315 315 315 315 314 314 314 316 319 321 323 324 322 320
262 263 263 263 263 264 266 266 267 268 268 270 273 275 277 278 279 281 282 282 281 281 281 281 281 282 284 285 285 285 284 283 282 282 283 281 280 280 282 285 287 290 294 298 302 303 300 302 307 305 302 300 301 305 310 310 309 309 308 309 311 311 311 310 309 309 310 314 317 320 322 322 322 320
264 266 267 267 266 266 267 267 267 268 268 270 272 273 275 275 276 276 276 276 276 276 276 277 278 279 280 281 281 280 279 279 280 281 281 279 279 281 283 284 287 291 293 295 301 305 301 302 304 303 300 300 301 305 310 310 308 307 306 305 305 306 305 304 303 304 306 310 314 317 319 320 321 320
262 265 267 268 268 267 266 267 267 268 268 268 269 269 271 272 273 272 270 270 270 271 273 274 275 274 273 273 272 273 274 276 276 278 278 279 283 287 288 288 290 292 292 294 301 306 304 303 304 302 301 301 301 305 309 310 308 307 306 305 303 302 301 300 300 301 303 307 310 313 315 317 318 318
259 262 265 266 267 267 267 267 267 268 268 268 267 267 268 270 272 270 269 269 270 271 271 271 271 271 270 269 269 270 271 272 274 276 277 280 285 291 293 293 293 293 292 294 300 305 304 303 303 301 301 300 300 303 307 307 306 306 305 304 303 301 299 298 298 299 301 304 307 310 312 314 315 314
257 258 261 264 266 266 267 267 267 267 268 267 266 265 265 266 266 267 269 270 271 271 271 270 269 268 267 267 268 269 270 273 275 278 281 284 288 292 293 293 293 292 291 292 297 302 302 301 301 300 300 299 299 303 305 305 304 303 302 301 301 299 298 297 296 297 299 301 304 306 309 310 309 309
257 257 258 261 263 264 264 265 266 266 267 267 266 265 263 262 262 264 267 269 270 271 272 272 271 270 269 268 268 268 271 274 277 280 283 287 290 291 291 290 290 291 289 289 292 296 298 299 299 299 301 300 300 302 304 304 302 301 300 299 298 297 297 296 295 295 296 298 300 302 304 305 304 304
255 257 258 259 261 262 262 262 263 264 265 266 266 266 265 263 261 262 265 267 269 271 272 273 274 274 273 272 272 271 272 274 277 280 283 285 287 288 288 287 288 288 288 288 290 292 294 296 297 298 300 302 302 303 303 302 301 301 300 299 298 298 298 297 295 295 295 296 297 298 300 299 299 299
253 253 255 255 257 258 259 260 260 261 262 264 265 266 266 265 264 263 264 265 268 269 270 271 272 272 273 274 275 276 276 278 280 282 284 285 286 287 287 287 287 287 287 287 289 291 292 293 295 296 298 301 303 303 302 300 300 299 298 297 297 297 298 298 297 297 296 295 294 295 295 294 293 293
255 255 256 256 257 258 258 259 260 260 261 261 263 264 265 266 266 266 265 266 266 267 268 269 269 270 272 274 275 277 278 280 282 284 285 285 285 285 286 286 286 287 287 287 288 289 290 290 291 293 296 299 302 302 301 298 297 296 295 294 294 294 295 297 297 297 295 292 291 291 289 287 285 285
255 257 259 260 260 261 262 262 262 262 262 262 262 263 264 266 268 269 268 267 267 267 268 269 270 271 272 273 274 275 277 279 281 282 283 283 284 284 284 284 285 286 287 287 287 287 287 287 288 289 293 296 298 299 298 297 295 294 291 290 290 291 292 293 293 293 292 289 286 285 282 280 280 280
254 255 257 258 259 261 263 264 264 264 264 263 263 263 264 266 267 269 269 269 269 269 270 270 271 270 271 271 272 273 274 276 279 280 280 282 283 284 284 284 285 286 285 285 286 286 287 287 286 287 290 292 294 295 295 296 295 293 290 287 286 287 288 289 288 287 287 286 284 280 277 276 277 279
254 254 254 255 256 258 260 263 265 264 264 264 265 265 266 267 267 268 269 270 270 270 270 270 270 270 270 271 272 273 275 276 277 278 279 280 282 284 285 285 286 286 284 283 283 284 285 286 286 287 288 290 290 291 292 294 295 292 287 283 281 282 284 286 288 287 286 286 285 281 279 278 278 278
256 255 254 253 253 254 256 259 261 261 262 263 264 265 267 268 268 268 269 269 269 270 270 270 270 270 270 271 272 273 275 276 277 277 278 280 281 282 283 284 286 286 285 283 283 283 284 285 286 286 286 286 286 287 288 291 292 288 282 278 277 278 281 284 286 287 286 284 283 281 281 282 281 280
256 256 254 253 252 251 252 253 255 257 259 261 262 263 265 266 267 268 269 269 269 269 269 270 270 270 270 271 271 273 274 276 276 277 277 278 278 278 280 282 283 284 283 283 283 283 283 284 285 285 284 282 282 283 285 287 287 283 278 275 274 275 276 278 280 282 283 284 283 282 282 283 283 283
256 255 255 254 253 253 252 252 253 256 258 260 261 262 262 263 264 265 266 267 268 268 269 269 270 270 270 271 272 272 273 275 276 276 277 277 277 277 278 280 280 280 280 281 283 283 283 284 284 284 282 280 279 280 282 283 282 279 274 273 273 272 271 273 276 279 282 284 284 283 283 282 282 284
254 255 255 255 255 255 255 255 255 256 257 259 260 261 262 262 263 263 264 265 266 267 267 268 269 270 270 270 271 271 272 273 275 276 277 277 277 278 279 280 280 280 279 279 281 282 283 283 283 283 282 280 279 279 279 278 276 273 271 270 269 269 270 272 275 278 280 281 281 281 282 283 283 283
255 255 256 256 257 257 257 257 257 257 258 259 260 261 262 263 263 263 264 264 265 266 266 267 267 268 269 269 269 270 271 272 273 274 275 276 276 277 279 280 281 281 280 279 280 281 281 282 283 284 284 282 280 278 276 273 269 267 266 266 266 268 270 272 273 274 276 277 279 281 283 284 285 284
258 257 257 258 258 258 259 259 259 259 259 260 260 261 262 263 264 264 264 265 265 266 266 266 266 266 267 267 268 269 270 271 271 272 273 274 275 276 278 280 281 282 281 281 280 279 280 281 283 283 283 282 281 278 273 269 267 264 262 264 269 271 270 269 270 272 273 275 278 280 281 283 284 285
259 259 259 259 259 260 260 260 260 260 260 261 261 262 262 263 263 264 265 265 266 266 266 266 266 266 266 266 267 267 268 270 270 271 272 273 274 276 277 278 280 280 281 281 281 280 280 281 283 283 282 280 280 279 271 266 269 269 266 264 267 269 267 267 270 273 274 276 278 278 279 281 282 282
261 261 261 261 261 261 261 262 262 262 262 262 262 262 263 263 263 264 264 265 266 266 266 267 267 267 267 266 267 267 267 268 269 270 271 272 273 274 275 276 277 278 279 280 280 281 281 281 282 282 280 279 279 278 271 265 267 271 269 267 267 267 267 268 269 271 274 278 279 280 282 284 283 281
262 262 262 262 262 262 262 262 262 263 263 263 263 262 263 264 264 264 264 265 265 266 266 266 266 267 267 267 268 267 267 268 268 269 271 272 272 273 273 274 275 276 277 278 278 279 280 281 280 280 280 279 278 275 271 267 267 269 271 272 271 269 269 270 270 270 274 277 279 281 285 286 284 283
263 263 263 263 263 263 263 263 263 263 263 263 263 263 263 263 264 264 265 265 265 265 266 266 266 267 267 267 268 268 268 268 268 268 269 270 271 272 272 273 273 274 275 276 277 278 278 279 279 278 279 279 277 273 271 269 267 267 270 272 272 271 272 273 274 275 277 278 280 283 285 284 283 283
263 263 263 263 263 263 263 263 263 263 263 263 263 263 263 263 263 263 264 264 265 265 265 266 267 267 267 267 268 268 268 268 268 268 268 268 269 270 271 272 272 273 273 274 275 276 277 277 276 276 277 276 275 273 272 271 268 266 268 270 272 272 272 273 275 277 279 280 281 283 285 284 282 282
262 262 262 262 263 263 262 262 263 263 263 263 263 264 263 263 263 263 263 264 264 265 265 265 265 266 267 268 268 268 268 268 268 268 268 268 268 268 269 270 271 272 272 273 273 274 275 275 275 275 274 274 273 273 271 270 269 267 266 268 271 273 273 273 273 274 276 279 280 281 282 283 282 281
262 262 262 262 262 262 262 262 262 262 262 262 262 263 263 263 263 263 263 264 264 264 264 264 264 265 265 266 267 267 267 267 267 267 267 268 268 268 268 268 269 270 271 272 272 272 273 273 273 273 272 273 275 276 274 272 271 270 269 268 269 272 273 273 273 274 276 279 280 279 280 280 280 278
261 261 261 261 261 261 262 262 262 262 261 261 261 262 262 262 263 263 263 263 263 263 263 263 263 264 264 264 265 265 266 266 266 266 266 267 267 267 267 268 268 268 269 269 270 270 271 271 272 271 271 272 274 274 273 273 273 273 273 272 271 272 272 273 275 276 279 281 282 280 279 279 277 275
261 261 261 261 261 261 261 261 261 262 262 262 261 261 261 261 262 262 262 262 262 262 262 262 263 263 263 263 263 263 264 264 265 265 265 265 265 266 267 267 268 268 267 268 268 268 268 269 270 270 271 271 271 270 271 271 271 271 271 272 272 273 272 272 274 276 278 280 281 280 280 279 278 275
Height
5971 5972 5972 5973 5974 5974 5974 5975 5975 5975 5976 5976 5977 5977 5977 5978 5978 5978 5979 5979 5979 5979 5979 5979 5979 5979 5978 5978 5978 5977 5977 5976 5975 5975 5974 5973 5972 5972 5971 5970 5969 5968 5967 5966 5965 5964 5963 5962 5961 5960 5958 5957 5955 5954 5952 5951 5949 5948 5946 5945 5943 5942 5941 5939 5938 5937 5936 5935 5933 5932 5930 5928 5926 5924
5971 5971 5972 5972 5973 5973 5974 5974 5974 5975 5975 5976 5976 5976 5977 5977 5978 5978 5978 5978 5979 5979 5979 5979 5979 5978 5978 5978 5977 5977 5976 5976 5975 5974 5974 5973 5972 5971 5970 5970 5969 5968 5967 5966 5965 5964 5963 5962 5961 5960 5959 5957 5956 5954 5953 5952 5950 5949 5947 5946 5944 5943 5942 5940 5939 5938 5937 5936 5935 5933 5932 5930 5928 5926
5971 5971 5971 5972 5972 5972 5973 5973 5974 5974 5974 5975 5975 5976 5976 5976 5977 5977 5977 5978 5978 5978 5978 5978 5978 5978 5978 5978 5977 5977 5976 5975 5975 5974 5974 5973 5972 5971 5970 5969 5969 5968 5967 5966 5965 5964 5963 5962 5961 5960 5959 5958 5956 5955 5954 5952 5951 5949 5948 5947 5945 5944 5942 5941 5940 5939 5938 5937 5936 5935 5933 5932 5931 5929
5970 5971 5971 5971 5972 5972 5972 5972 5973 5973 5973 5974 5974 5974 5975 5975 5975 5976 5976 5977 5977 5978 5978 5978 5978 5978 5978 5977 5977 5976 5975 5975 5974 5974 5973 5973 5972 5971 5970 5969 5968 5968 5967 5966 5965 5964 5963 5962 5961 5960 5959 5958 5957 5955 5954 5953 5951 5950 5949 5947 5946 5945 5943 5942 5940 5939 5938 5937 5936 5935 5934 5933 5932 5931
5970 5970 5971 5971 5972 5972 5972 5972 5972 5972 5972 5973 5973 5973 5973 5974 5974 5975 5975 5976 5976 5977 5977 5977 5977 5977 5977 5976 5976 5975 5975 5974 5974 5973 5973 5972 5971 5970 5969 5969 5968 5967 5967 5966 5965 5964 5963 5962 5961 5960 5959 5958 5957 5956 5954 5953 5952 5950 5949 5948 5946 5945 5944 5943 5941 5940 5938 5938 5937 5936 5935 5934 5933 5932
5969 5969 5970 5971 5971 5972 5972 5972 5972 5972 5972 5972 5972 5972 5973 5973 5974 5974 5974 5975 5975 5975 5976 5976 5976 5976 5976 5975 5975 5975 5974 5974 5973 5973 5972 5971 5971 5970 5969 5968 5968 5967 5966 5966 5965 5964 5963 5962 5961 5960 5959 5958 5957 5955 5954 5953 5952 5951 5949 5948 5947 5946 5944 5943 5942 5940 5939 5938 5937 5936 5936 5935 5934 5933
5968 5969 5969 5970 5971 5971 5972 5972 5972 5972 5972 5972 5972 5972 5972 5973 5973 5973 5973 5973 5974 5974 5974 5974 5974 5974 5974 5974 5974 5974 5973 5973 5973 5972 5971 5971 5970 5969 5969 5968 5967 5967 5966 5965 5964 5964 5963 5962 5961 5960 5959 5958 5956 5955 5954 5953 5952 5951 5950 5949 5948 5946 5945 5944 5942 5941 5940 5938 5937 5936 5936 5935 5935 5934
5967 5968 5969 5969 5970 5970 5971 5971 5972 5972 5972 5972 5972 5972 5972 5972 5972 5972 5972 5972 5972 5972 5972 5973 5973 5973 5973 5973 5972 5973 5972 5972 5972 5971 5971 5970 5969 5969 5968 5968 5967 5966 5965 5965 5964 5963 5962 5961 5960 5959 5959 5957 5956 5955 5954 5953 5952 5951 5950 5949 5948 5947 5946 5944 5943 5942 5940 5939 5938 5937 5936 5935 5935 5934
5966 5967 5968 5968 5969 5969 5970 5971 5971 5971 5971 5971 5971 5972 5972 5972 5972 5972 5972 5972 5972 5972 5971 5971 5971 5972 5972 5972 5971 5972 5971 5971 5970 5970 5970 5969 5969 5968 5968 5967 5966 5966 5965 5964 5963 5963 5962 5961 5960 5959 5958 5958 5957 5955 5954 5953 5952 5951 5950 5949 5948 5947 5946 5945 5944 5942 5941 5940 5938 5937 5936 5935 5935 5934
5965 5965 5966 5967 5968 5968 5969 5970 5970 5970 5970 5970 5970 5970 5971 5971 5971 5971 5971 5972 5971 5971 5971 5971 5970 5971 5971 5971 5970 5970 5970 5970 5969 5969 5968 5968 5968 5968 5967 5966 5965 5965 5964 5963 5963 5962 5961 5960 5959 5959 5958 5957 5956 5955 5955 5954 5952 5951 5950 5949 5948 5947 5947 5945 5944 5943 5941 5940 5939 5938 5936 5935 5935 5934
5964 5965 5965 5966 5967 5967 5968 5969 5969 5969 5969 5968 5968 5968 5969 5969 5969 5969 5970 5970 5970 5970 5970 5970 5969 5969 5969 5969 5969 5968 5969 5968 5968 5968 5967 5966 5966 5966 5965 5965 5964 5964 5963 5962 5962 5961 5961 5960 5959 5958 5957 5957 5956 5955 5954 5953 5952 5951 5950 5949 5948 5947 5946 5945 5944 5943 5942 5940 5939 5938 5937 5935 5934 5934
5963 5963 5964 5964 5965 5966 5967 5967 5968 5968 5968 5967 5967 5967 5967 5967 5967 5967 5968 5968 5968 5968 5968 5968 5968 5968 5967 5967 5967 5967 5967 5967 5967 5966 5966 5965 5965 5964 5964 5963 5962 5962 5962 5961 5960 5960 5960 5959 5958 5957 5956 5956 5955 5954 5953 5953 5952 5951 5950 5949 5948 5947 5946 5945 5944 5942 5941 5940 5939 5938 5937 5935 5934 5933
5961 5961 5961 5962 5963 5963 5964 5965 5966 5966 5966 5966 5966 5966 5966 5966 5966 5966 5966 5966 5966 5967 5967 5966 5966 5966 5966 5965 5965 5965 5965 5965 5965 5965 5965 5964 5964 5964 5963 5961 5960 5960 5961 5960 5959 5958 5958 5958 5957 5956 5955 5954 5953 5952 5952 5951 5950 5950 5949 5948 5947 5946 5945 5944 5943 5942 5940 5939 5938 5937 5936 5935 5934 5933
5958 5958 5959 5959 5959 5960 5961 5962 5963 5963 5963 5964 5964 5964 5965 5965 5965 5965 5964 5964 5965 5965 5965 5964 5964 5964 5964 5963 5963 5963 5963 5964 5964 5963 5963 5963 5962 5962 5962 5960 5958 5958 5959 5959 5958 5956 5956 5956 5955 5954 5953 5953 5951 5950 5950 5949 5949 5948 5947 5946 5945 5944 5943 5942 5941 5940 5939 5938 5937 5936 5935 5934 5933 5932
5956 5956 5956 5956 5957 5957 5958 5959 5960 5960 5960 5961 5961 5961 5962 5962 5963 5963 5963 5963 5963 5963 5963 5962 5962 5962 5962 5962 5961 5962 5962 5962 5962 5961 5961 5961 5961 5960 5960 5959 5956 5955 5956 5957 5957 5955 5954 5954 5954 5952 5951 5950 5949 5948 5948 5947 5946 5946 5945 5944 5944 5943 5942 5941 5940 5938 5937 5936 5935 5934 5934 5932 5931 5931
5954 5954 5954 5954 5955 5955 5955 5956 5957 5958 5958 5958 5958 5959 5960 5960 5961 5961 5961 5961 5961 5961 5961 5961 5960 5960 5960 5960 5959 5959 5960 5960 5960 5959 5959 5959 5959 5958 5958 5957 5956 5954 5954 5955 5956 5954 5951 5952 5952 5950 5949 5948 5946 5946 5946 5945 5944 5944 5943 5942 5942 5941 5940 5939 5938 5937 5936 5935 5934 5933 5932 5931 5930 5929
5952 5953 5952 5953 5953 5953 5954 5954 5955 5956 5956 5956 5957 5957 5958 5959 5959 5959 5959 5959 5959 5958 5958 5959 5958 5958 5958 5958 5958 5957 5957 5958 5957 5957 5957 5957 5957 5956 5956 5956 5955 5953 5952 5953 5955 5954 5950 5950 5950 5949 5947 5945 5944 5943 5943 5942 5942 5941 5941 5940 5940 5939 5938 5937 5936 5935 5934 5933 5933 5932 5931 5930 5929 5928
5951 5951 5951 5951 5951 5951 5951 5952 5953 5954 5954 5955 5955 5956 5956 5957 5957 5957 5957 5957 5957 5957 5957 5957 5956 5956 5955 5956 5956 5955 5955 5955 5955 5955 5955 5955 5954 5954 5954 5954 5953 5951 5950 5950 5952 5952 5949 5947 5948 5947 5945 5943 5941 5941 5941 5940 5939 5939 5938 5938 5938 5937 5936 5935 5935 5934 5933 5932 5932 5931 5930 5929 5928 5927
5949 5950 5950 5950 5950 5949 5949 5949 5950 5951 5952 5953 5953 5953 5954 5954 5954 5955 5954 5954 5954 5954 5954 5954 5954 5954 5954 5954 5954 5953 5952 5951 5951 5952 5952 5952 5951 5951 5952 5952 5950 5949 5947 5947 5949 5950 5947 5945 5946 5945 5943 5941 5938 5938 5939 5938 5937 5937 5936 5936 5936 5935 5934 5933 5933 5932 5931 5931 5930 5929 5928 5928 5927 5926
5947 5948 5948 5949 5948 5948 5947 5946 5946 5947 5948 5950 5951 5951 5951 5951 5951 5952 5951 5950 5950 5950 5950 5951 5952 5952 5952 5951 5951 5950 5949 5948 5948 5948 5949 5948 5947 5948 5950 5950 5948 5947 5944 5943 5945 5947 5945 5943 5944 5943 5941 5939 5936 5935 5935 5936 5935 5934 5934 5934 5933 5933 5932 5932 5931 5930 5929 5929 5928 5927 5926 5926 5925 5924
5943 5944 5945 5946 5946 5946 5945 5944 5944 5944 5945 5947 5948 5948 5948 5948 5948 5948 5947 5945 5946 5947 5947 5948 5949 5949 5949 5948 5947 5946 5945 5945 5944 5945 5946 5945 5944 5946 5947 5947 5947 5945 5942 5940 5941 5943 5943 5941 5941 5940 5939 5937 5934 5932 5932 5932 5932 5932 5931 5931 5931 5931 5930 5930 5929 5928 5927 5927 5926 5925 5924 5924 5923 5922
5939 5940 5941 5942 5943 5944 5943 5942 5941 5941 5942 5944 5944 5944 5945 5945 5945 5944 5943 5942 5944 5944 5944 5945 5945 5946 5945 5945 5944 5943 5942 5941 5941 5942 5943 5942 5942 5943 5944 5944 5944 5943 5939 5937 5938 5940 5939 5938 5937 5937 5937 5935 5932 5930 5930 5929 5929 5929 5928 5928 5928 5928 5927 5927 5926 5926 5925 5925 5924 5923 5922 5921 5920 5920
5936 5936 5937 5938 5940 5940 5940 5940 5938 5938 5938 5939 5940 5941 5941 5942 5941 5940 5939 5940 5941 5941 5941 5942 5942 5943 5943 5942 5942 5941 5939 5938 5938 5939 5940 5940 5940 5941 5941 5940 5940 5940 5937 5934 5935 5937 5936 5935 5934 5934 5934 5934 5930 5928 5928 5927 5926 5926 5925 5924 5924 5924 5923 5923 5923 5923 5922 5922 5922 5921 5920 5919 5918 5918
5932 5933 5933 5934 5936 5937 5937 5937 5935 5934 5934 5935 5935 5936 5937 5938 5937 5937 5937 5937 5938 5938 5939 5939 5939 5940 5940 5939 5939 5938 5937 5936 5936 5936 5937 5937 5937 5938 5938 5937 5937 5937 5934 5931 5931 5933 5933 5932 5931 5930 5931 5931 5929 5926 5925 5924 5923 5923 5922 5921 5920 5920 5919 5919 5919 5919 5919 5919 5919 5919 5918 5917 5916 5916
5929 5929 5930 5930 5931 5932 5933 5933 5932 5931 5930 5930 5931 5931 5932 5933 5934 5934 5934 5934 5935 5936 5936 5937 5937 5937 5936 5936 5935 5935 5935 5933 5933 5934 5934 5934 5934 5934 5934 5933 5933 5933 5931 5927 5927 5930 5930 5929 5928 5927 5927 5928 5927 5925 5922 5920 5919 5919 5918 5917 5916 5916 5916 5915 5915 5915 5916 5916 5916 5915 5915 5914 5914 5913
5924 5925 5926 5926 5926 5927 5928 5928 5928 5927 5927 5926 5926 5926 5927 5928 5929 5930 5931 5931 5932 5932 5933 5933 5934 5933 5932 5931 5931 5931 5931 5930 5930 5930 5931 5930 5930 5929 5929 5928 5928 5929 5927 5924 5923 5925 5927 5926 5925 5924 5924 5924 5924 5922 5920 5917 5915 5915 5914 5914 5912 5912 5912 5912 5911 5912 5912 5912 5912 5912 5912 5911 5911 5910
5920 5921 5922 5921 5922 5923 5923 5924 5924 5923 5922 5922 5922 5922 5923 5924 5925 5926 5927 5928 5927 5928 5928 5929 5929 5929 5928 5928 5928 5927 5926 5926 5926 5926 5926 5925 5924 5924 5924 5923 5923 5924 5923 5921 5919 5920 5922 5923 5921 5920 5920 5920 5920 5919 5917 5914 5913 5912 5911 5910 5909 5909 5909 5908 5908 5908 5908 5908 5908 5908 5908 5908 5907 5907
5916 5917 5917 5917 5917 5918 5919 5919 5919 5918 5918 5917 5917 5918 5918 5919 5920 5922 5922 5922 5923 5924 5924 5925 5925 5925 5924 5924 5923 5923 5922 5922 5922 5921 5921 5920 5919 5919 5919 5919 5919 5919 5918 5916 5915 5914 5916 5917 5917 5916 5915 5916 5916 5915 5913 5911 5910 5909 5908 5908 5906 5905 5905 5905 5905 5905 5904 5905 5905 5904 5904 5904 5904 5904
5911 5912 5912 5912 5912 5913 5914 5914 5914 5914 5913 5912 5912 5913 5913 5915 5916 5916 5916 5917 5918 5919 5920 5920 5920 5921 5920 5918 5918 5918 5917 5917 5917 5916 5915 5914 5913 5913 5913 5914 5915 5916 5914 5912 5910 5909 5910 5911 5912 5912 5912 5911 5910 5910 5909 5908 5907 5906 5905 5904 5903 5902 5902 5902 5902 5901 5901 5901 5901 5901 5900 5900 5900 5900
5907 5907 5907 5907 5908 5908 5908 5909 5909 5909 5908 5908 5908 5908 5909 5910 5911 5911 5911 5912 5913 5914 5914 5915 5915 5915 5915 5914 5913 5913 5913 5913 5913 5911 5910 5910 5910 5908 5907 5909 5911 5911 5909 5907 5906 5905 5905 5906 5907 5908 5908 5907 5906 5905 5905 5905 5905 5903 5901 5901 5900 5899 5898 5897 5898 5898 5898 5898 5898 5897 5897 5896 5896 5896
5902 5902 5902 5903 5903 5904 5903 5903 5903 5903 5903 5903 5903 5903 5904 5905 5906 5906 5906 5906 5907 5908 5909 5910 5910 5910 5910 5910 5909 5908 5908 5909 5908 5906 5906 5906 5906 5904 5903 5904 5907 5907 5905 5902 5901 5901 5901 5901 5901 5902 5903 5902 5901 5901 5901 5901 5901 5900 5898 5897 5896 5896 5895 5894 5894 5894 5894 5895 5895 5894 5893 5893 5892 5892
5897 5897 5897 5897 5898 5898 5898 5898 5897 5897 5897 5898 5898 5898 5898 5899 5900 5900 5900 5900 5901 5902 5903 5904 5905 5905 5904 5905 5904 5904 5904 5903 5902 5901 5901 5901 5901 5900 5899 5899 5901 5902 5901 5899 5897 5896 5896 5896 5896 5896 5897 5897 5897 5896 5896 5897 5896 5895 5894 5893 5893 5893 5891 5889 5890 5890 5889 5890 5891 5890 5889 5889 5888 5888
5891 5891 5892 5892 5892 5893 5893 5893 5892 5892 5892 5892 5893 5893 5893 5894 5894 5894 5894 5895 5896 5897 5898 5899 5899 5899 5899 5899 5899 5898 5899 5898 5897 5896 5896 5896 5895 5895 5894 5894 5895 5896 5896 5895 5893 5891 5891 5890 5890 5890 5890 5891 5892 5892 5892 5891 5891 5889 5888 5888 5888 5888 5887 5885 5885 5885 5885 5886 5886 5886 5885 5884 5884 5883
5885 5885 5886 5886 5886 5886 5886 5887 5887 5886 5887 5887 5887 5887 5887 5888 5888 5888 5888 5889 5889 5891 5892 5893 5893 5893 5893 5893 5893 5892 5893 5892 5892 5891 5891 5890 5889 5889 5889 5889 5889 5889 5890 5890 5889 5887 5885 5884 5884 5884 5884 5885 5887 5887 5886 5886 5885 5884 5883 5883 5884 5883 5881 5881 5881 5881 5880 5881 5881 5881 5881 5880 5879 5878
5879 5879 5880 5880 5879 5880 5880 5880 5880 5880 5881 5881 5881 5881 5881 5881 5882 5883 5883 5883 5883 5884 5885 5886 5887 5887 5887 5887 5887 5887 5887 5887 5887 5886 5885 5885 5884 5883 5883 5883 5884 5883 5883 5884 5884 5881 5880 5879 5879 5879 5879 5879 5880 5882 5881 5879 5879 5879 5878 5878 5878 5878 5877 5877 5877 5877 5876 5876 5876 5877 5877 5876 5875 5873
5872 5872 5873 5873 5873 5873 5873 5874 5874 5874 5875 5875 5875 5875 5875 5875 5876 5876 5876 5877 5877 5878 5879 5880 5880 5880 5880 5880 5881 5881 5881 5881 5881 5880 5880 5879 5878 5878 5878 5878 5878 5878 5878 5878 5877 5876 5875 5874 5873 5873 5873 5873 5874 5876 5875 5872 5872 5874 5875 5875 5874 5874 5873 5872 5872 5873 5872 5871 5872 5872 5872 5872 5870 5868
5865 5865 5865 5866 5866 5866 5867 5867 5867 5867 5868 5868 5868 5868 5869 5869 5869 5869 5870 5870 5871 5871 5872 5873 5873 5873 5873 5874 5874 5875 5875 5874 5874 5874 5874 5873 5872 5872 5873 5873 5872 5872 5872 5872 5871 5870 5870 5869 5868 5866 5867 5867 5868 5870 5870 5867 5866 5868 5871 5871 5871 5869 5867 5867 5867 5867 5866 5866 5866 5866 5867 5867 5866 5863
5857 5858 5858 5859 5859 5860 5860 5860 5860 5860 5861 5861 5862 5862 5862 5862 5863 5863 5863 5864 5864 5864 5865 5865 5866 5866 5866 5866 5867 5868 5868 5868 5868 5868 5867 5867 5867 5867 5867 5867 5866 5866 5866 5866 5865 5864 5864 5864 5863 5860 5859 5861 5863 5864 5864 5863 5862 5863 5863 5864 5864 5863 5861 5861 5862 5862 5861 5860 5860 5860 5860 5861 5861 5858
5849 5850 5850 5851 5851 5852 5853 5853 5853 5853 5854 5854 5854 5855 5855 5856 5856 5856 5857 5857 5857 5857 5858 5858 5858 5858 5858 5859 5859 5860 5861 5861 5861 5861 5861 5860 5860 5860 5860 5860 5860 5860 5860 5860 5860 5858 5858 5858 5857 5855 5854 5855 5857 5858 5858 5859 5860 5859 5857 5857 5856 5855 5854 5855 5856 5856 5856 5854 5853 5853 5854 5854 5854 5853
5840 5841 5842 5843 5843 5844 5844 5845 5845 5846 5846 5847 5847 5847 5848 5849 5849 5849 5850 5850 5850 5850 5850 5851 5851 5851 5851 5851 5851 5852 5853 5854 5854 5854 5854 5854 5853 5853 5853 5853 5854 5853 5853 5853 5854 5853 5852 5852 5851 5849 5849 5850 5850 5851 5852 5854 5856 5855 5852 5850 5849 5849 5848 5848 5848 5849 5849 5848 5847 5847 5848 5848 5847 5847
5831 5832 5833 5834 5835 5835 5836 5837 5837 5838 5838 5838 5838 5839 5840 5841 5841 5842 5842 5842 5842 5843 5843 5843 5843 5843 5843 5844 5844 5844 5845 5846 5846 5846 5846 5846 5846 5847 5846 5846 5847 5846 5846 5847 5848 5847 5846 5845 5844 5844 5843 5843 5844 5844 5845 5848 5850 5850 5847 5844 5843 5843 5843 5842 5842 5842 5842 5841 5840 5841 5842 5841 5840 5840
5822 5823 5824 5824 5825 5826 5827 5828 5829 5829 5829 5829 5830 5830 5831 5832 5833 5834 5834 5834 5835 5835 5835 5836 5836 5836 5835 5836 5836 5836 5837 5838 5838 5838 5838 5838 5838 5839 5839 5839 5839 5839 5839 5839 5841 5841 5840 5838 5838 5838 5836 5836 5836 5837 5838 5840 5842 5843 5842 5840 5838 5836 5836 5836 5835 5835 5835 5834 5834 5834 5835 5834 5833 5834
5812 5813 5814 5814 5815 5816 5816 5817 5818 5819 5819 5820 5820 5821 5821 5823 5824 5825 5825 5826 5826 5826 5827 5827 5828 5828 5827 5827 5827 5828 5829 5830 5830 5830 5830 5830 5830 5830 5831 5831 5831 5831 5831 5832 5833 5834 5833 5831 5831 5830 5829 5829 5830 5830 5831 5833 5835 5836 5836 5836 5834 5831 5829 5828 5827 5827 5828 5828 5828 5827 5828 5828 5827 5828
5801 5802 5803 5804 5804 5805 5805 5806 5807 5808 5808 5809 5810 5811 5811 5812 5814 5815 5816 5816 5816 5816 5817 5818 5818 5819 5819 5818 5818 5819 5819 5820 5821 5821 5822 5822 5822 5822 5822 5823 5823 5823 5824 5824 5825 5826 5826 5824 5823 5822 5821 5822 5823 5822 5822 5825 5828 5828 5829 5829 5828 5826 5824 5821 5820 5820 5821 5821 5821 5820 5820 5820 5820 5820
5790 5791 5792 5793 5793 5794 5794 5795 5795 5796 5796 5797 5798 5799 5800 5801 5802 5804 5805 5805 5805 5805 5806 5808 5808 5809 5809 5809 5809 5809 5810 5810 5811 5812 5812 5813 5814 5814 5814 5814 5814 5814 5815 5815 5816 5817 5818 5817 5815 5814 5813 5814 5815 5814 5814 5817 5819 5820 5821 5820 5820 5819 5818 5815 5814 5813 5814 5814 5813 5811 5811 5812 5812 5812